Time,TemperatureF,DewpointF,PressureIn,WindDirection,WindDirectionDegrees,WindSpeedMPH,WindSpeedGustMPH,Humidity,HourlyPrecipIn,Conditions,Clouds,dailyrainin,SoftwareType,DateUTC
2013-03-29 00:00:00,28.4,22.4,30.23,SSE,165,0.0,0.0,78,0.00,,CLR,0.00,VWS V14.01,2013-03-29 05:00:00,
2013-03-29 00:05:00,28.5,22.5,30.23,SSE,165,0.0,0.0,78,0.00,,CLR,0.00,VWS V14.01,2013-03-29 05:05:00,
2013-03-29 00:10:00,28.7,22.7,30.23,SSE,165,0.0,0.0,78,0.00,,CLR,0.00,VWS V14.01,2013-03-29 05:10:00,
2013-03-29 00:15:00,28.4,22.4,30.23,SSE,165,0.0,0.0,78,0.00,,CLR,0.00,VWS V14.01,2013-03-29 05:15:00,
2013-03-29 00:20:00,28.4,22.4,30.23,SSE,165,0.0,0.0,78,0.00,,CLR,0.00,VWS V14.01,2013-03-29 05:20:00,
2013-03-29 00:25:00,28.2,22.2,30.23,SSE,165,0.0,0.0,78,0.00,,CLR,0.00,VWS V14.01,2013-03-29 05:25:00,
2013-03-29 00:30:00,28.1,22.1,30.23,SSE,165,0.0,0.0,78,0.00,,CLR,0.00,VWS V14.01,2013-03-29 05:30:00,
2013-03-29 00:35:00,28.1,22.1,30.23,SSE,165,0.0,0.0,78,0.00,,CLR,0.00,VWS V14.01,2013-03-29 05:35:00,
2013-03-29 00:40:00,27.9,21.9,30.23,SSE,165,0.0,0.0,78,0.00,,CLR,0.00,VWS V14.01,2013-03-29 05:40:00,
2013-03-29 00:45:00,27.9,21.9,30.23,SSE,165,0.0,0.0,78,0.00,,CLR,0.00,VWS V14.01,2013-03-29 05:45:00,
2013-03-29 00:50:00,27.8,22.1,30.23,SSE,165,0.0,0.0,79,0.00,,CLR,0.00,VWS V14.01,2013-03-29 05:50:00,
2013-03-29 00:55:00,27.9,22.2,30.23,SSE,165,0.0,0.0,79,0.00,,CLR,0.00,VWS V14.01,2013-03-29 05:55:00,
2013-03-29 01:00:00,27.8,22.1,30.23,SSE,165,0.0,0.0,79,0.00,,FEW065,0.00,VWS V14.01,2013-03-29 06:00:00,
2013-03-29 01:05:00,27.8,22.1,30.23,SSE,165,0.0,0.0,79,0.00,,FEW065,0.00,VWS V14.01,2013-03-29 06:05:00,
2013-03-29 01:10:00,27.8,22.1,30.23,SSE,165,0.0,0.0,79,0.00,,FEW065,0.00,VWS V14.01,2013-03-29 06:10:00,
2013-03-29 01:15:00,27.6,22.0,30.23,SSE,165,0.0,0.0,79,0.00,,FEW065,0.00,VWS V14.01,2013-03-29 06:15:00,
2013-03-29 01:20:00,27.5,22.1,30.23,SSE,165,0.0,0.0,80,0.00,,FEW065,0.00,VWS V14.01,2013-03-29 06:20:00,
2013-03-29 01:25:00,27.5,22.1,30.23,SSE,165,0.0,0.0,80,0.00,,FEW065,0.00,VWS V14.01,2013-03-29 06:25:00,
2013-03-29 01:30:00,27.5,22.1,30.23,SSE,165,0.0,0.0,80,0.00,,FEW065,0.00,VWS V14.01,2013-03-29 06:30:00,
2013-03-29 01:35:00,27.3,22.0,30.23,SSE,165,0.0,0.0,80,0.00,,FEW065,0.00,VWS V14.01,2013-03-29 06:35:00,
2013-03-29 01:40:00,27.2,21.9,30.23,SSE,165,0.0,0.0,80,0.00,,FEW065,0.00,VWS V14.01,2013-03-29 06:40:00,
2013-03-29 01:45:00,27.0,21.7,30.23,SSE,165,0.0,0.0,80,0.00,,FEW065,0.00,VWS V14.01,2013-03-29 06:45:00,
2013-03-29 01:50:00,27.0,21.7,30.23,SSE,165,0.0,0.0,80,0.00,,FEW065,0.00,VWS V14.01,2013-03-29 06:50:00,
2013-03-29 01:55:00,27.0,21.7,30.23,SSE,165,0.0,0.0,80,0.00,,FEW065,0.00,VWS V14.01,2013-03-29 06:55:00,
2013-03-29 02:00:00,27.2,22.1,30.23,SSE,165,0.0,0.0,81,0.00,,BKN065,0.00,VWS V14.01,2013-03-29 07:00:00,
2013-03-29 02:05:00,27.3,22.2,30.23,SSE,165,0.0,0.0,81,0.00,,BKN065,0.00,VWS V14.01,2013-03-29 07:05:00,
2013-03-29 02:10:00,27.3,22.2,30.23,SSE,165,0.0,0.0,81,0.00,,BKN065,0.00,VWS V14.01,2013-03-29 07:10:00,
2013-03-29 02:15:00,27.3,22.2,30.23,SSE,165,0.0,0.0,81,0.00,,BKN065,0.00,VWS V14.01,2013-03-29 07:15:00,
2013-03-29 02:20:00,27.5,22.5,30.23,SSE,165,0.0,0.0,81,0.00,,BKN065,0.00,VWS V14.01,2013-03-29 07:20:00,
2013-03-29 02:25:00,27.5,22.5,30.23,SSE,165,0.0,0.0,81,0.00,,BKN065,0.00,VWS V14.01,2013-03-29 07:25:00,
2013-03-29 02:30:00,27.5,22.5,30.23,SSE,165,0.0,0.0,81,0.00,,BKN065,0.00,VWS V14.01,2013-03-29 07:30:00,
2013-03-29 02:35:00,27.6,22.5,30.23,SSE,165,0.0,0.0,81,0.00,,BKN065,0.00,VWS V14.01,2013-03-29 07:35:00,
2013-03-29 02:40:00,27.8,22.7,30.23,SSE,165,0.0,0.0,81,0.00,,BKN065,0.00,VWS V14.01,2013-03-29 07:40:00,
2013-03-29 02:45:00,27.9,22.8,30.23,SSE,165,0.0,0.0,81,0.00,,BKN065,0.00,VWS V14.01,2013-03-29 07:45:00,
2013-03-29 02:50:00,28.1,23.0,30.23,SSE,165,0.0,0.0,81,0.00,,BKN065,0.00,VWS V14.01,2013-03-29 07:50:00,
2013-03-29 02:55:00,28.4,23.3,30.23,SSE,165,0.0,0.0,81,0.00,,BKN065,0.00,VWS V14.01,2013-03-29 07:55:00,
2013-03-29 03:00:00,28.7,23.9,30.22,SSE,165,0.0,0.0,82,0.00,,OVC055,0.00,VWS V14.01,2013-03-29 08:00:00,
2013-03-29 03:05:00,29.0,24.2,30.22,SSE,165,0.0,0.0,82,0.00,,OVC055,0.00,VWS V14.01,2013-03-29 08:05:00,
2013-03-29 03:10:00,29.4,24.3,30.22,SSE,165,0.0,0.0,81,0.00,,OVC055,0.00,VWS V14.01,2013-03-29 08:10:00,
2013-03-29 03:15:00,29.7,24.6,30.22,SSE,165,0.0,0.0,81,0.00,,OVC055,0.00,VWS V14.01,2013-03-29 08:15:00,
2013-03-29 03:20:00,29.8,24.7,30.22,SSE,165,0.0,0.0,81,0.00,,OVC055,0.00,VWS V14.01,2013-03-29 08:20:00,
2013-03-29 03:25:00,29.8,24.4,30.22,SSE,165,0.0,0.0,80,0.00,,OVC055,0.00,VWS V14.01,2013-03-29 08:25:00,
2013-03-29 03:30:00,30.0,24.6,30.22,SSE,165,0.0,0.0,80,0.00,,OVC055,0.00,VWS V14.01,2013-03-29 08:30:00,
2013-03-29 03:35:00,30.0,24.6,30.22,SSE,165,0.0,0.0,80,0.00,,OVC055,0.00,VWS V14.01,2013-03-29 08:35:00,
2013-03-29 03:40:00,30.1,24.7,30.22,SSE,158,0.0,0.0,80,0.00,,---,0.00,VWS V14.01,2013-03-29 08:40:00,
2013-03-29 03:45:00,30.3,24.9,30.22,SSE,165,0.0,0.0,80,0.00,,OVC055,0.00,VWS V14.01,2013-03-29 08:45:00,
2013-03-29 03:50:00,30.3,24.9,30.22,SSE,158,0.0,0.0,80,0.00,,---,0.00,VWS V14.01,2013-03-29 08:50:00,
2013-03-29 03:55:00,30.4,25.0,30.22,SSE,165,0.0,0.0,80,0.00,,OVC055,0.00,VWS V14.01,2013-03-29 08:55:00,
2013-03-29 04:00:00,30.6,24.9,30.21,SSE,158,0.0,0.0,79,0.00,,---,0.00,VWS V14.01,2013-03-29 09:00:00,
2013-03-29 04:05:00,30.6,24.9,30.21,SSE,165,0.0,0.0,79,0.00,,OVC095,0.00,VWS V14.01,2013-03-29 09:05:00,
2013-03-29 04:10:00,30.6,24.9,30.21,SSE,158,0.0,0.0,79,0.00,,---,0.00,VWS V14.01,2013-03-29 09:10:00,
2013-03-29 04:15:00,30.6,24.9,30.21,SSE,165,0.0,0.0,79,0.00,,OVC095,0.00,VWS V14.01,2013-03-29 09:15:00,
2013-03-29 04:20:00,30.6,24.6,30.21,SSE,158,0.0,0.0,78,0.00,,---,0.00,VWS V14.01,2013-03-29 09:20:00,
2013-03-29 04:25:00,30.6,24.6,30.21,SSE,165,0.0,0.0,78,0.00,,OVC095,0.00,VWS V14.01,2013-03-29 09:25:00,
2013-03-29 04:30:00,30.6,24.6,30.20,SSE,165,0.0,0.0,78,0.00,,OVC095,0.00,VWS V14.01,2013-03-29 09:30:00,
2013-03-29 04:35:00,30.6,24.6,30.20,SSE,165,0.0,0.0,78,0.00,,OVC095,0.00,VWS V14.01,2013-03-29 09:35:00,
2013-03-29 04:40:00,30.7,24.7,30.20,SSE,165,0.0,0.0,78,0.00,,OVC095,0.00,VWS V14.01,2013-03-29 09:40:00,
2013-03-29 04:42:00,30.1,24.7,30.22,SSE,165,0.0,0.0,80,0.00,,OVC055,0.00,VWS V14.01,2013-03-29 09:42:00,
2013-03-29 04:45:00,30.9,24.5,30.21,SSE,158,0.0,0.0,77,0.00,,---,0.00,VWS V14.01,2013-03-29 09:45:00,
2013-03-29 04:50:00,30.9,24.5,30.21,SSE,165,0.0,0.0,77,0.00,,OVC095,0.00,VWS V14.01,2013-03-29 09:50:00,
2013-03-29 04:52:00,30.3,24.9,30.22,SSE,165,0.0,0.0,80,0.00,,OVC055,0.00,VWS V14.01,2013-03-29 09:52:00,
2013-03-29 04:55:00,30.9,24.5,30.21,SSE,165,0.0,0.0,77,0.00,,OVC095,0.00,VWS V14.01,2013-03-29 09:55:00,
2013-03-29 05:00:00,30.7,24.4,30.21,SSE,158,0.0,0.0,77,0.00,,---,0.00,VWS V14.01,2013-03-29 10:00:00,
2013-03-29 05:02:00,30.6,24.9,30.21,SSE,165,0.0,0.0,79,0.00,,OVC095,0.00,VWS V14.01,2013-03-29 10:02:00,
2013-03-29 05:05:00,30.7,24.4,30.21,SSE,158,0.0,0.0,77,0.00,,---,0.00,VWS V14.01,2013-03-29 10:05:00,
2013-03-29 05:10:00,30.9,24.5,30.21,SSE,165,0.0,0.0,77,0.00,,BKN100,0.00,VWS V14.01,2013-03-29 10:10:00,
2013-03-29 05:12:00,30.6,24.9,30.21,SSE,165,0.0,0.0,79,0.00,,OVC095,0.00,VWS V14.01,2013-03-29 10:12:00,
2013-03-29 05:15:00,30.9,24.5,30.20,SSE,158,0.0,0.0,77,0.00,,---,0.00,VWS V14.01,2013-03-29 10:15:00,
2013-03-29 05:20:00,30.9,24.5,30.20,SSE,158,0.0,0.0,77,0.00,,---,0.00,VWS V14.01,2013-03-29 10:20:00,
2013-03-29 05:22:00,30.6,24.6,30.21,SSE,165,0.0,0.0,78,0.00,,OVC095,0.00,VWS V14.01,2013-03-29 10:22:00,
2013-03-29 05:25:00,31.0,24.6,30.20,SSE,158,0.0,0.0,77,0.00,,---,0.00,VWS V14.01,2013-03-29 10:25:00,
2013-03-29 05:30:00,31.0,24.6,30.21,SSE,158,0.0,0.0,77,0.00,,---,0.00,VWS V14.01,2013-03-29 10:30:00,
2013-03-29 05:35:00,31.2,24.8,30.21,SSE,158,0.0,1.0,77,0.00,,---,0.00,VWS V14.01,2013-03-29 10:35:00,
2013-03-29 05:40:00,31.5,24.8,30.21,SSE,158,0.0,0.0,76,0.00,,---,0.00,VWS V14.01,2013-03-29 10:40:00,
2013-03-29 05:45:00,31.6,24.9,30.21,SSE,158,0.0,0.0,76,0.00,,---,0.00,VWS V14.01,2013-03-29 10:45:00,
2013-03-29 05:47:00,30.9,24.5,30.21,SSE,165,0.0,0.0,77,0.00,,OVC095,0.00,VWS V14.01,2013-03-29 10:47:00,
2013-03-29 05:50:00,31.8,25.1,30.21,SSE,158,0.0,0.0,76,0.00,,---,0.00,VWS V14.01,2013-03-29 10:50:00,
2013-03-29 05:55:00,31.9,24.9,30.21,SSE,158,0.0,0.0,75,0.00,,---,0.00,VWS V14.01,2013-03-29 10:55:00,
2013-03-29 06:00:00,32.1,25.1,30.21,SSE,158,0.0,0.0,75,0.00,,---,0.00,VWS V14.01,2013-03-29 11:00:00,
2013-03-29 06:02:00,30.7,24.4,30.21,SSE,165,0.0,0.0,77,0.00,,BKN100,0.00,VWS V14.01,2013-03-29 11:02:00,
2013-03-29 06:05:00,32.2,25.2,30.21,SSE,158,0.0,0.0,75,0.00,,---,0.00,VWS V14.01,2013-03-29 11:05:00,
2013-03-29 06:10:00,32.4,25.4,30.21,SSE,158,0.0,0.0,75,0.00,,---,0.00,VWS V14.01,2013-03-29 11:10:00,
2013-03-29 06:15:00,32.4,25.0,30.21,SSE,165,0.0,0.0,74,0.00,,OVC050,0.00,VWS V14.01,2013-03-29 11:15:00,
2013-03-29 06:17:00,30.9,24.5,30.20,SSE,165,0.0,0.0,77,0.00,,BKN100,0.00,VWS V14.01,2013-03-29 11:17:00,
2013-03-29 06:20:00,32.7,25.3,30.21,SSE,158,0.0,0.0,74,0.00,,---,0.00,VWS V14.01,2013-03-29 11:20:00,
2013-03-29 06:23:00,30.9,24.5,30.20,SSE,165,0.0,0.0,77,0.00,,BKN100,0.00,VWS V14.01,2013-03-29 11:23:00,
2013-03-29 06:25:00,32.8,25.4,30.21,SSE,158,0.0,0.0,74,0.00,,---,0.00,VWS V14.01,2013-03-29 11:25:00,
2013-03-29 06:30:00,33.1,25.7,30.22,SSE,158,0.0,0.0,74,0.00,,---,0.00,VWS V14.01,2013-03-29 11:30:00,
2013-03-29 06:32:00,31.0,24.6,30.21,SSE,165,0.0,0.0,77,0.00,,BKN100,0.00,VWS V14.01,2013-03-29 11:32:00,
2013-03-29 06:35:00,33.4,25.7,30.22,SSE,158,0.0,2.0,73,0.00,,---,0.00,VWS V14.01,2013-03-29 11:35:00,
2013-03-29 06:40:00,33.7,26.0,30.22,SSE,158,0.0,3.0,73,0.00,,---,0.00,VWS V14.01,2013-03-29 11:40:00,
2013-03-29 06:42:00,31.5,24.8,30.21,SSE,165,0.0,0.0,76,0.00,,BKN100,0.00,VWS V14.01,2013-03-29 11:42:00,
2013-03-29 06:45:00,34.0,26.3,30.22,SSE,158,0.0,3.0,73,0.00,,---,0.00,VWS V14.01,2013-03-29 11:45:00,
2013-03-29 06:47:00,31.6,24.9,30.21,SSE,165,0.0,0.0,76,0.00,,BKN100,0.00,VWS V14.01,2013-03-29 11:47:00,
2013-03-29 06:50:00,34.3,26.2,30.22,SSE,158,1.0,4.0,72,0.00,,---,0.00,VWS V14.01,2013-03-29 11:50:00,
2013-03-29 06:52:00,31.8,25.1,30.21,SSE,165,0.0,0.0,76,0.00,,BKN100,0.00,VWS V14.01,2013-03-29 11:52:00,
2013-03-29 06:55:00,34.9,26.5,30.22,SSE,158,1.0,6.0,71,0.00,,---,0.00,VWS V14.01,2013-03-29 11:55:00,
2013-03-29 06:57:00,31.9,24.9,30.21,SSE,165,0.0,0.0,75,0.00,,BKN100,0.00,VWS V14.01,2013-03-29 11:57:00,
2013-03-29 07:00:00,35.2,26.4,30.21,SSE,158,3.0,9.0,70,0.00,,---,0.00,VWS V14.01,2013-03-29 12:00:00,
2013-03-29 07:02:00,32.1,25.1,30.21,SSE,165,0.0,0.0,75,0.00,,OVC050,0.00,VWS V14.01,2013-03-29 12:02:00,
2013-03-29 07:05:00,35.5,26.4,30.21,SSE,158,1.0,5.0,69,0.00,,---,0.00,VWS V14.01,2013-03-29 12:05:00,
2013-03-29 07:07:00,32.2,25.2,30.21,SSE,165,0.0,0.0,75,0.00,,OVC050,0.00,VWS V14.01,2013-03-29 12:07:00,
2013-03-29 07:10:00,35.8,26.6,30.21,SSE,158,2.0,7.0,69,0.00,,---,0.00,VWS V14.01,2013-03-29 12:10:00,
2013-03-29 07:12:00,32.4,25.4,30.21,SSE,165,0.0,0.0,75,0.00,,OVC050,0.00,VWS V14.01,2013-03-29 12:12:00,
2013-03-29 07:15:00,35.9,26.7,30.22,SSE,158,2.0,5.0,69,0.00,,---,0.00,VWS V14.01,2013-03-29 12:15:00,
2013-03-29 07:20:00,36.2,26.7,30.22,South,180,2.0,6.0,68,0.00,,---,0.00,VWS V14.01,2013-03-29 12:20:00,
2013-03-29 07:22:00,32.7,25.3,30.21,SSE,165,0.0,0.0,74,0.00,,OVC050,0.00,VWS V14.01,2013-03-29 12:22:00,
2013-03-29 07:25:00,36.3,26.8,30.22,SSE,158,3.0,9.0,68,0.00,,---,0.00,VWS V14.01,2013-03-29 12:25:00,
2013-03-29 07:27:00,32.8,25.4,30.21,SSE,165,0.0,0.0,74,0.00,,OVC050,0.00,VWS V14.01,2013-03-29 12:27:00,
2013-03-29 07:30:00,36.6,26.7,30.21,SSE,158,4.0,10.0,67,0.00,,---,0.00,VWS V14.01,2013-03-29 12:30:00,
2013-03-29 07:32:00,33.1,25.7,30.22,SSE,165,0.0,0.0,74,0.00,,OVC050,0.00,VWS V14.01,2013-03-29 12:32:00,
2013-03-29 07:35:00,36.8,26.9,30.21,SSE,158,3.0,7.0,67,0.00,,---,0.00,VWS V14.01,2013-03-29 12:35:00,
2013-03-29 07:37:00,33.4,25.7,30.22,SSE,165,0.0,2.0,73,0.00,,OVC050,0.00,VWS V14.01,2013-03-29 12:37:00,
2013-03-29 07:40:00,37.0,26.7,30.21,South,180,3.0,9.0,66,0.00,,---,0.00,VWS V14.01,2013-03-29 12:40:00,
2013-03-29 07:45:00,37.2,26.9,30.21,SSE,158,3.0,6.0,66,0.00,,---,0.00,VWS V14.01,2013-03-29 12:45:00,
2013-03-29 07:47:00,34.0,26.3,30.22,SSE,164,0.0,2.0,73,0.00,,OVC050,0.00,VWS V14.01,2013-03-29 12:47:00,
2013-03-29 07:50:00,37.3,27.0,30.21,SE,135,2.0,7.0,66,0.00,,---,0.00,VWS V14.01,2013-03-29 12:50:00,
2013-03-29 07:52:00,34.3,26.2,30.22,SSE,164,0.0,4.0,72,0.00,,OVC050,0.00,VWS V14.01,2013-03-29 12:52:00,
2013-03-29 07:55:00,37.6,26.9,30.21,SSE,158,3.0,9.0,65,0.00,,---,0.00,VWS V14.01,2013-03-29 12:55:00,
2013-03-29 07:57:00,34.9,26.5,30.22,SSE,163,0.0,6.0,71,0.00,,OVC050,0.00,VWS V14.01,2013-03-29 12:57:00,
2013-03-29 08:00:00,37.8,27.1,30.21,SSE,158,2.0,6.0,65,0.00,,---,0.00,VWS V14.01,2013-03-29 13:00:00,
2013-03-29 08:05:00,37.9,26.8,30.21,SSE,158,5.0,9.0,64,0.00,,---,0.00,VWS V14.01,2013-03-29 13:05:00,
2013-03-29 08:07:00,35.5,26.4,30.21,SSE,165,0.0,5.0,69,0.00,,OVC048,0.00,VWS V14.01,2013-03-29 13:07:00,
2013-03-29 08:10:00,38.2,27.1,30.21,SSE,158,4.0,7.0,64,0.00,,---,0.00,VWS V14.01,2013-03-29 13:10:00,
2013-03-29 08:12:00,35.8,26.6,30.21,SSE,162,0.0,7.0,69,0.00,,OVC048,0.00,VWS V14.01,2013-03-29 13:12:00,
2013-03-29 08:15:00,38.2,27.1,30.22,South,180,4.0,11.0,64,0.00,,---,0.00,VWS V14.01,2013-03-29 13:15:00,
2013-03-29 08:20:00,38.3,26.8,30.22,South,180,4.0,10.0,63,0.00,,---,0.00,VWS V14.01,2013-03-29 13:20:00,
2013-03-29 08:22:00,36.2,26.7,30.22,SSE,156,4.0,6.0,68,0.00,,OVC048,0.00,VWS V14.01,2013-03-29 13:22:00,
2013-03-29 08:25:00,38.3,27.2,30.22,South,180,3.0,6.0,64,0.00,,---,0.00,VWS V14.01,2013-03-29 13:25:00,
2013-03-29 08:27:00,36.3,26.8,30.22,South,175,0.0,9.0,68,0.00,,OVC048,0.00,VWS V14.01,2013-03-29 13:27:00,
2013-03-29 08:30:00,38.3,27.6,30.22,SSE,158,2.0,7.0,65,0.00,,---,0.00,VWS V14.01,2013-03-29 13:30:00,
2013-03-29 08:35:00,38.3,28.0,30.22,SSE,158,4.0,7.0,66,0.00,,---,0.00,VWS V14.01,2013-03-29 13:35:00,
2013-03-29 08:37:00,36.8,26.9,30.21,South,172,3.0,7.0,67,0.00,,OVC048,0.00,VWS V14.01,2013-03-29 13:37:00,
2013-03-29 08:40:00,38.5,28.5,30.22,SSE,158,1.0,6.0,67,0.00,,---,0.00,VWS V14.01,2013-03-29 13:40:00,
2013-03-29 08:42:00,37.0,26.7,30.21,SE,146,5.0,9.0,66,0.00,,OVC048,0.00,VWS V14.01,2013-03-29 13:42:00,
2013-03-29 08:45:00,38.6,29.0,30.21,SSE,158,1.0,6.0,68,0.00,,---,0.00,VWS V14.01,2013-03-29 13:45:00,
2013-03-29 08:50:00,38.9,29.2,30.21,SSE,158,2.0,8.0,68,0.00,,---,0.00,VWS V14.01,2013-03-29 13:50:00,
2013-03-29 08:52:00,37.3,27.0,30.21,South,171,4.0,7.0,66,0.00,,OVC048,0.00,VWS V14.01,2013-03-29 13:52:00,
2013-03-29 08:55:00,39.3,29.3,30.21,SSE,158,2.0,7.0,67,0.00,,---,0.00,VWS V14.01,2013-03-29 13:55:00,
2013-03-29 08:57:00,37.6,26.9,30.21,SSE,161,3.0,9.0,65,0.00,,OVC048,0.00,VWS V14.01,2013-03-29 13:57:00,
2013-03-29 09:00:00,39.5,29.5,30.21,South,180,0.0,6.0,67,0.00,,---,0.00,VWS V14.01,2013-03-29 14:00:00,
2013-03-29 09:02:00,37.8,27.1,30.21,SSE,162,4.0,6.0,65,0.00,,OVC050,0.00,VWS V14.01,2013-03-29 14:02:00,
2013-03-29 09:05:00,39.6,29.6,30.21,South,180,0.0,0.0,67,0.00,,---,0.00,VWS V14.01,2013-03-29 14:05:00,
2013-03-29 09:07:00,37.9,26.8,30.21,South,171,3.0,8.0,64,0.00,,OVC050,0.00,VWS V14.01,2013-03-29 14:07:00,
2013-03-29 09:10:00,39.8,29.4,30.21,SSE,158,1.0,5.0,66,0.00,,---,0.00,VWS V14.01,2013-03-29 14:10:00,
2013-03-29 09:15:00,39.9,29.1,30.22,SE,135,1.0,6.0,65,0.00,,---,0.00,VWS V14.01,2013-03-29 14:15:00,
2013-03-29 09:17:00,38.2,27.1,30.22,SSW,197,4.0,11.0,64,0.00,,OVC050,0.00,VWS V14.01,2013-03-29 14:17:00,
2013-03-29 09:20:00,40.1,28.9,30.22,SSE,158,0.0,5.0,64,0.00,,---,0.00,VWS V14.01,2013-03-29 14:20:00,
2013-03-29 09:22:00,38.3,26.8,30.22,SSE,168,2.0,10.0,63,0.00,,OVC050,0.00,VWS V14.01,2013-03-29 14:22:00,
2013-03-29 09:25:00,40.3,28.7,30.22,SSE,158,3.0,7.0,63,0.00,,---,0.00,VWS V14.01,2013-03-29 14:25:00,
2013-03-29 09:27:00,38.3,27.2,30.22,SSE,161,5.0,6.0,64,0.00,,OVC050,0.00,VWS V14.01,2013-03-29 14:27:00,
2013-03-29 09:30:00,40.6,28.6,30.21,SSE,158,4.0,7.0,62,0.00,,---,0.00,VWS V14.01,2013-03-29 14:30:00,
2013-03-29 09:32:00,38.3,27.6,30.22,SSE,160,3.0,7.0,65,0.00,,OVC050,0.00,VWS V14.01,2013-03-29 14:32:00,
2013-03-29 09:35:00,40.9,28.5,30.21,South,180,4.0,10.0,61,0.00,,---,0.00,VWS V14.01,2013-03-29 14:35:00,
2013-03-29 09:37:00,38.3,28.0,30.22,SSE,159,5.0,7.0,66,0.00,,OVC050,0.00,VWS V14.01,2013-03-29 14:37:00,
2013-03-29 09:40:00,41.1,28.3,30.21,South,180,4.0,7.0,60,0.00,,---,0.00,VWS V14.01,2013-03-29 14:40:00,
2013-03-29 09:42:00,38.5,28.5,30.22,SSE,165,0.0,6.0,67,0.00,,OVC050,0.00,VWS V14.01,2013-03-29 14:42:00,
2013-03-29 09:45:00,41.2,28.4,30.22,South,180,4.0,12.0,60,0.00,,---,0.00,VWS V14.01,2013-03-29 14:45:00,
2013-03-29 09:50:00,41.3,28.9,30.22,South,180,3.0,7.0,61,0.00,,---,0.00,VWS V14.01,2013-03-29 14:50:00,
2013-03-29 09:52:00,38.9,29.2,30.21,SE,142,2.0,8.0,68,0.00,,OVC050,0.00,VWS V14.01,2013-03-29 14:52:00,
2013-03-29 09:55:00,41.3,28.5,30.22,South,180,4.0,11.0,60,0.00,,---,0.00,VWS V14.01,2013-03-29 14:55:00,
2013-03-29 09:57:00,39.3,29.3,30.21,SSE,151,0.0,7.0,67,0.00,,OVC050,0.00,VWS V14.01,2013-03-29 14:57:00,
2013-03-29 10:00:00,41.2,28.4,30.21,South,180,5.0,7.0,60,0.00,,---,0.00,VWS V14.01,2013-03-29 15:00:00,
2013-03-29 10:05:00,40.9,28.1,30.21,SSE,158,6.0,11.0,60,0.00,,---,0.00,VWS V14.01,2013-03-29 15:05:00,
2013-03-29 10:07:00,39.6,29.6,30.21,South,175,0.0,0.0,67,0.00,,OVC047,0.00,VWS V14.01,2013-03-29 15:07:00,
2013-03-29 10:10:00,40.9,28.5,30.21,SSE,158,4.0,8.0,61,0.00,,---,0.00,VWS V14.01,2013-03-29 15:10:00,
2013-03-29 10:12:00,39.8,29.4,30.21,SSE,155,0.0,5.0,66,0.00,,OVC047,0.00,VWS V14.01,2013-03-29 15:12:00,
2013-03-29 10:15:00,41.1,28.7,30.21,South,180,2.0,7.0,61,0.00,,---,0.00,VWS V14.01,2013-03-29 15:15:00,
2013-03-29 10:17:00,39.9,29.1,30.22,SE,146,3.0,5.0,65,0.00,,OVC047,0.00,VWS V14.01,2013-03-29 15:17:00,
2013-03-29 10:20:00,41.2,28.8,30.21,South,180,5.0,10.0,61,0.00,,---,0.00,VWS V14.01,2013-03-29 15:20:00,
2013-03-29 10:22:00,40.1,28.9,30.22,SSE,162,5.0,5.0,64,0.00,,OVC047,0.00,VWS V14.01,2013-03-29 15:22:00,
2013-03-29 10:25:00,41.2,28.4,30.21,SSE,158,5.0,10.0,60,0.00,,---,0.00,VWS V14.01,2013-03-29 15:25:00,
2013-03-29 10:27:00,40.3,28.7,30.22,SSE,147,5.0,7.0,63,0.00,,OVC047,0.00,VWS V14.01,2013-03-29 15:27:00,
2013-03-29 10:30:00,41.1,28.3,30.20,South,180,5.0,10.0,60,0.00,,---,0.00,VWS V14.01,2013-03-29 15:30:00,
2013-03-29 10:35:00,41.1,28.7,30.20,SSE,158,4.0,9.0,61,0.00,,---,0.00,VWS V14.01,2013-03-29 15:35:00,
2013-03-29 10:37:00,40.9,28.5,30.21,South,173,6.0,10.0,61,0.00,,OVC047,0.00,VWS V14.01,2013-03-29 15:37:00,
2013-03-29 10:40:00,41.1,28.7,30.20,SSE,158,4.0,7.0,61,0.00,,---,0.00,VWS V14.01,2013-03-29 15:40:00,
2013-03-29 10:42:00,41.1,28.3,30.21,SSE,153,0.0,7.0,60,0.00,,OVC047,0.00,VWS V14.01,2013-03-29 15:42:00,
2013-03-29 10:45:00,41.1,29.1,30.20,SSE,158,4.0,11.0,62,0.00,,---,0.00,VWS V14.01,2013-03-29 15:45:00,
2013-03-29 10:50:00,40.8,28.8,30.20,SSE,158,6.0,13.0,62,0.00,,---,0.00,VWS V14.01,2013-03-29 15:50:00,
2013-03-29 10:52:00,41.3,28.9,30.22,South,172,3.0,7.0,61,0.00,,OVC047,0.00,VWS V14.01,2013-03-29 15:52:00,
2013-03-29 10:55:00,40.8,29.2,30.20,SSE,158,5.0,11.0,63,0.00,,---,0.00,VWS V14.01,2013-03-29 15:55:00,
2013-03-29 11:00:00,40.8,29.2,30.20,SSE,158,5.0,10.0,63,0.00,,---,0.00,VWS V14.01,2013-03-29 16:00:00,
2013-03-29 11:02:00,41.2,28.4,30.21,SSE,164,4.0,7.0,60,0.00,,OVC060,0.00,VWS V14.01,2013-03-29 16:02:00,
2013-03-29 11:05:00,40.9,29.7,30.20,SSE,158,5.0,10.0,64,0.00,,---,0.00,VWS V14.01,2013-03-29 16:05:00,
2013-03-29 11:07:00,40.9,28.1,30.21,SSE,162,7.0,11.0,60,0.00,,OVC060,0.00,VWS V14.01,2013-03-29 16:07:00,
2013-03-29 11:10:00,40.9,30.1,30.20,SSE,158,4.0,10.0,65,0.00,,---,0.00,VWS V14.01,2013-03-29 16:10:00,
2013-03-29 11:15:00,40.9,29.7,30.19,South,180,5.0,12.0,64,0.00,,---,0.00,VWS V14.01,2013-03-29 16:15:00,
2013-03-29 11:17:00,41.1,28.7,30.21,South,169,3.0,7.0,61,0.00,,OVC060,0.00,VWS V14.01,2013-03-29 16:17:00,
2013-03-29 11:20:00,41.1,30.2,30.19,SSE,158,5.0,12.0,65,0.00,,---,0.00,VWS V14.01,2013-03-29 16:20:00,
2013-03-29 11:22:00,41.2,28.8,30.21,SSE,152,9.0,9.0,61,0.00,,OVC060,0.00,VWS V14.01,2013-03-29 16:22:00,
2013-03-29 11:25:00,41.2,30.3,30.19,SSE,158,6.0,13.0,65,0.00,,---,0.00,VWS V14.01,2013-03-29 16:25:00,
2013-03-29 11:27:00,41.2,28.4,30.21,South,184,4.0,10.0,60,0.00,,OVC060,0.00,VWS V14.01,2013-03-29 16:27:00,
2013-03-29 11:30:00,41.3,30.1,30.19,SSE,158,4.0,8.0,64,0.00,,---,0.00,VWS V14.01,2013-03-29 16:30:00,
2013-03-29 11:35:00,41.5,29.9,30.19,SSE,158,6.0,13.0,63,0.00,,---,0.00,VWS V14.01,2013-03-29 16:35:00,
2013-03-29 11:37:00,41.1,28.7,30.20,South,174,3.0,9.0,61,0.00,,OVC060,0.00,VWS V14.01,2013-03-29 16:37:00,
2013-03-29 11:40:00,41.8,30.5,30.19,South,180,5.0,15.0,64,0.00,,---,0.00,VWS V14.01,2013-03-29 16:40:00,
2013-03-29 11:42:00,41.1,28.7,30.20,SSE,158,3.0,7.0,61,0.00,,OVC060,0.00,VWS V14.01,2013-03-29 16:42:00,
2013-03-29 11:45:00,42.1,30.0,30.19,South,180,6.0,15.0,62,0.00,,---,0.00,VWS V14.01,2013-03-29 16:45:00,
2013-03-29 11:47:00,41.1,29.1,30.20,SSE,159,2.0,9.0,62,0.00,,OVC060,0.00,VWS V14.01,2013-03-29 16:47:00,
2013-03-29 11:50:00,42.8,30.7,30.19,SSE,158,4.0,9.0,62,0.00,,---,0.00,VWS V14.01,2013-03-29 16:50:00,
2013-03-29 11:52:00,40.8,28.8,30.20,South,175,6.0,13.0,62,0.00,,OVC060,0.00,VWS V14.01,2013-03-29 16:52:00,
2013-03-29 11:55:00,43.5,30.1,30.19,SSE,158,5.0,11.0,59,0.00,,---,0.00,VWS V14.01,2013-03-29 16:55:00,
2013-03-29 11:57:00,40.8,29.2,30.20,South,182,2.0,11.0,63,0.00,,OVC060,0.00,VWS V14.01,2013-03-29 16:57:00,
2013-03-29 12:00:00,44.1,30.7,30.18,SSE,158,4.0,10.0,59,0.00,,---,0.00,VWS V14.01,2013-03-29 17:00:00,
2013-03-29 12:05:00,44.1,30.3,30.18,SSE,158,5.0,12.0,58,0.00,,---,0.00,VWS V14.01,2013-03-29 17:05:00,
2013-03-29 12:07:00,40.9,29.7,30.20,SSE,159,4.0,10.0,64,0.00,,-RA,0.00,VWS V14.01,2013-03-29 17:07:00,
2013-03-29 12:10:00,43.8,30.0,30.18,SSE,158,4.0,9.0,58,0.00,,---,0.00,VWS V14.01,2013-03-29 17:10:00,
2013-03-29 12:12:00,40.9,30.1,30.20,SE,140,4.0,10.0,65,0.00,,-RA,0.00,VWS V14.01,2013-03-29 17:12:00,
2013-03-29 12:15:00,43.6,30.2,30.18,SSE,158,3.0,10.0,59,0.00,,---,0.00,VWS V14.01,2013-03-29 17:15:00,
2013-03-29 12:20:00,43.5,30.1,30.18,South,180,4.0,10.0,59,0.00,,---,0.00,VWS V14.01,2013-03-29 17:20:00,
2013-03-29 12:22:00,41.1,30.2,30.19,SSE,168,7.0,12.0,65,0.00,,-RA,0.00,VWS V14.01,2013-03-29 17:22:00,
2013-03-29 12:25:00,43.6,30.2,30.18,South,180,4.0,10.0,59,0.00,,---,0.00,VWS V14.01,2013-03-29 17:25:00,
2013-03-29 12:27:00,41.2,30.3,30.19,SSE,148,5.0,13.0,65,0.00,,-RA,0.00,VWS V14.01,2013-03-29 17:27:00,
2013-03-29 12:30:00,44.2,30.8,30.17,SSE,158,2.0,10.0,59,0.00,,---,0.00,VWS V14.01,2013-03-29 17:30:00,
2013-03-29 12:35:00,44.9,30.6,30.17,SSE,158,5.0,10.0,57,0.00,,---,0.00,VWS V14.01,2013-03-29 17:35:00,
2013-03-29 12:37:00,41.5,29.9,30.19,South,169,5.0,12.0,63,0.00,,-RA,0.00,VWS V14.01,2013-03-29 17:37:00,
2013-03-29 12:40:00,45.2,30.9,30.17,SSE,158,3.0,7.0,57,0.00,,---,0.00,VWS V14.01,2013-03-29 17:40:00,
2013-03-29 12:45:00,45.7,31.8,30.17,South,180,3.0,7.0,58,0.00,,---,0.00,VWS V14.01,2013-03-29 17:45:00,
2013-03-29 12:47:00,42.1,30.0,30.19,ESE,123,11.0,13.0,62,0.00,,-RA,0.00,VWS V14.01,2013-03-29 17:47:00,
2013-03-29 12:50:00,46.4,31.6,30.17,SSE,158,3.0,7.0,56,0.00,,---,0.00,VWS V14.01,2013-03-29 17:50:00,
2013-03-29 12:52:00,42.8,30.7,30.19,SSE,153,1.0,11.0,62,0.00,,-RA,0.00,VWS V14.01,2013-03-29 17:52:00,
2013-03-29 12:55:00,47.1,31.3,30.17,SSE,158,4.0,10.0,54,0.00,,---,0.00,VWS V14.01,2013-03-29 17:55:00,
2013-03-29 12:57:00,43.5,30.1,30.19,South,178,4.0,11.0,59,0.00,,-RA,0.00,VWS V14.01,2013-03-29 17:57:00,
2013-03-29 13:00:00,47.4,31.6,30.17,SSE,158,4.0,11.0,54,0.00,,---,0.00,VWS V14.01,2013-03-29 18:00:00,
2013-03-29 13:05:00,47.9,31.6,30.17,SSE,158,5.0,11.0,53,0.00,,---,0.00,VWS V14.01,2013-03-29 18:05:00,
2013-03-29 13:07:00,44.1,30.3,30.18,SSE,150,6.0,12.0,58,0.00,,BKN065,0.00,VWS V14.01,2013-03-29 18:07:00,
2013-03-29 13:10:00,48.2,31.9,30.17,SSE,158,5.0,11.0,53,0.00,,---,0.00,VWS V14.01,2013-03-29 18:10:00,
2013-03-29 13:12:00,43.8,30.0,30.18,South,179,2.0,9.0,58,0.00,,BKN065,0.00,VWS V14.01,2013-03-29 18:12:00,
2013-03-29 13:15:00,48.5,32.2,30.15,SSE,158,3.0,8.0,53,0.00,,---,0.00,VWS V14.01,2013-03-29 18:15:00,
2013-03-29 13:17:00,43.6,30.2,30.18,SSE,160,5.0,10.0,59,0.00,,BKN065,0.00,VWS V14.01,2013-03-29 18:17:00,
2013-03-29 13:20:00,49.2,31.9,30.15,South,180,4.0,12.0,51,0.00,,---,0.00,VWS V14.01,2013-03-29 18:20:00,
2013-03-29 13:22:00,43.5,30.1,30.18,SSE,168,4.0,10.0,59,0.00,,BKN065,0.00,VWS V14.01,2013-03-29 18:22:00,
2013-03-29 13:25:00,49.4,32.0,30.15,SSE,158,5.0,11.0,51,0.00,,---,0.00,VWS V14.01,2013-03-29 18:25:00,
2013-03-29 13:30:00,49.5,31.6,30.15,SSE,158,5.0,11.0,50,0.00,,---,0.00,VWS V14.01,2013-03-29 18:30:00,
2013-03-29 13:32:00,44.2,30.8,30.17,SSE,149,10.0,10.0,59,0.00,,BKN065,0.00,VWS V14.01,2013-03-29 18:32:00,
2013-03-29 13:35:00,49.8,32.4,30.15,SSE,158,2.0,7.0,51,0.00,,---,0.00,VWS V14.01,2013-03-29 18:35:00,
2013-03-29 13:37:00,44.9,30.6,30.17,SSW,202,3.0,10.0,57,0.00,,BKN065,0.00,VWS V14.01,2013-03-29 18:37:00,
2013-03-29 13:40:00,49.9,32.5,30.15,SSE,158,5.0,10.0,51,0.00,,---,0.00,VWS V14.01,2013-03-29 18:40:00,
2013-03-29 13:45:00,50.2,32.3,30.14,South,180,4.0,9.0,50,0.00,,---,0.00,VWS V14.01,2013-03-29 18:45:00,
2013-03-29 13:47:00,45.7,31.8,30.17,South,171,0.0,7.0,58,0.00,,BKN065,0.00,VWS V14.01,2013-03-29 18:47:00,
2013-03-29 13:50:00,50.2,32.3,30.14,SSE,158,5.0,10.0,50,0.00,,---,0.00,VWS V14.01,2013-03-29 18:50:00,
2013-03-29 13:52:00,46.4,31.6,30.17,SE,129,0.0,7.0,56,0.00,,BKN065,0.00,VWS V14.01,2013-03-29 18:52:00,
2013-03-29 13:55:00,50.5,32.6,30.14,SSE,158,4.0,8.0,50,0.00,,---,0.00,VWS V14.01,2013-03-29 18:55:00,
2013-03-29 13:57:00,47.1,31.3,30.17,SSE,159,0.0,10.0,54,0.00,,BKN065,0.00,VWS V14.01,2013-03-29 18:57:00,
2013-03-29 14:00:00,50.7,31.7,30.13,SSE,158,3.0,6.0,48,0.00,,---,0.00,VWS V14.01,2013-03-29 19:00:00,
2013-03-29 14:02:00,47.4,31.6,30.17,SSE,167,2.0,11.0,54,0.00,,BKN100,0.00,VWS V14.01,2013-03-29 19:02:00,
2013-03-29 14:05:00,50.7,31.7,30.13,SSE,158,5.0,11.0,48,0.00,,---,0.00,VWS V14.01,2013-03-29 19:05:00,
2013-03-29 14:10:00,51.0,32.0,30.13,SSE,158,4.0,10.0,48,0.00,,---,0.00,VWS V14.01,2013-03-29 19:10:00,
2013-03-29 14:12:00,48.2,31.9,30.17,South,182,9.0,10.0,53,0.00,,BKN100,0.00,VWS V14.01,2013-03-29 19:12:00,
2013-03-29 14:15:00,51.6,32.6,30.13,SSE,158,2.0,10.0,48,0.00,,---,0.00,VWS V14.01,2013-03-29 19:15:00,
2013-03-29 14:17:00,48.5,32.2,30.15,South,178,0.0,9.0,53,0.00,,BKN100,0.00,VWS V14.01,2013-03-29 19:17:00,
2013-03-29 14:20:00,51.7,32.1,30.13,SSE,158,6.0,12.0,47,0.00,,---,0.00,VWS V14.01,2013-03-29 19:20:00,
2013-03-29 14:25:00,51.6,32.0,30.13,SSE,158,5.0,10.0,47,0.00,,---,0.00,VWS V14.01,2013-03-29 19:25:00,
2013-03-29 14:27:00,49.4,32.0,30.15,South,178,5.0,11.0,51,0.00,,BKN100,0.00,VWS V14.01,2013-03-29 19:27:00,
2013-03-29 14:30:00,51.7,32.7,30.12,South,180,5.0,12.0,48,0.00,,---,0.00,VWS V14.01,2013-03-29 19:30:00,
2013-03-29 14:32:00,49.5,31.6,30.15,SE,146,4.0,11.0,50,0.00,,BKN100,0.00,VWS V14.01,2013-03-29 19:32:00,
2013-03-29 14:35:00,52.2,32.6,30.12,South,180,6.0,11.0,47,0.00,,---,0.00,VWS V14.01,2013-03-29 19:35:00,
2013-03-29 14:37:00,49.8,32.4,30.15,SSE,160,4.0,7.0,51,0.00,,BKN100,0.00,VWS V14.01,2013-03-29 19:37:00,
2013-03-29 14:40:00,52.2,32.1,30.12,South,180,7.0,17.0,46,0.00,,---,0.00,VWS V14.01,2013-03-29 19:40:00,
2013-03-29 14:42:00,49.9,32.5,30.15,South,182,4.0,9.0,51,0.00,,BKN100,0.00,VWS V14.01,2013-03-29 19:42:00,
2013-03-29 14:45:00,52.2,33.1,30.11,South,180,4.0,10.0,48,0.00,,---,0.00,VWS V14.01,2013-03-29 19:45:00,
2013-03-29 14:50:00,52.3,32.7,30.11,SSE,158,6.0,15.0,47,0.00,,---,0.00,VWS V14.01,2013-03-29 19:50:00,
2013-03-29 14:52:00,50.2,32.3,30.14,SSE,155,2.0,10.0,50,0.00,,BKN100,0.00,VWS V14.01,2013-03-29 19:52:00,
2013-03-29 14:55:00,52.0,32.4,30.11,South,180,7.0,14.0,47,0.00,,---,0.00,VWS V14.01,2013-03-29 19:55:00,
2013-03-29 14:57:00,50.5,32.6,30.14,SSE,158,3.0,8.0,50,0.00,,BKN100,0.00,VWS V14.01,2013-03-29 19:57:00,
2013-03-29 15:00:00,51.7,32.7,30.11,South,180,9.0,15.0,48,0.00,,---,0.00,VWS V14.01,2013-03-29 20:00:00,
2013-03-29 15:02:00,50.7,31.7,30.13,South,177,4.0,6.0,48,0.00,,CLR,0.00,VWS V14.01,2013-03-29 20:02:00,
2013-03-29 15:05:00,51.6,32.6,30.11,South,180,8.0,15.0,48,0.00,,---,0.00,VWS V14.01,2013-03-29 20:05:00,
2013-03-29 15:07:00,50.7,31.7,30.13,SSE,157,3.0,11.0,48,0.00,,CLR,0.00,VWS V14.01,2013-03-29 20:07:00,
2013-03-29 15:10:00,51.6,32.6,30.11,South,180,8.0,14.0,48,0.00,,---,0.00,VWS V14.01,2013-03-29 20:10:00,
2013-03-29 15:12:00,51.0,32.0,30.13,SSE,161,0.0,10.0,48,0.00,,CLR,0.00,VWS V14.01,2013-03-29 20:12:00,
2013-03-29 15:15:00,51.9,32.8,30.10,South,180,6.0,13.0,48,0.00,,---,0.00,VWS V14.01,2013-03-29 20:15:00,
2013-03-29 15:20:00,52.0,32.9,30.10,South,180,5.0,12.0,48,0.00,,---,0.00,VWS V14.01,2013-03-29 20:20:00,
2013-03-29 15:22:00,51.7,32.1,30.13,SE,127,7.0,12.0,47,0.00,,CLR,0.00,VWS V14.01,2013-03-29 20:22:00,
2013-03-29 15:25:00,52.0,32.9,30.10,South,180,4.0,10.0,48,0.00,,---,0.00,VWS V14.01,2013-03-29 20:25:00,
2013-03-29 15:27:00,51.6,32.0,30.13,South,183,12.0,12.0,47,0.00,,CLR,0.00,VWS V14.01,2013-03-29 20:27:00,
2013-03-29 15:30:00,51.9,32.8,30.10,South,180,5.0,13.0,48,0.00,,---,0.00,VWS V14.01,2013-03-29 20:30:00,
2013-03-29 15:35:00,51.3,32.8,30.10,South,180,4.0,11.0,49,0.00,,---,0.00,VWS V14.01,2013-03-29 20:35:00,
2013-03-29 15:37:00,52.2,32.6,30.12,SSE,168,6.0,11.0,47,0.00,,CLR,0.00,VWS V14.01,2013-03-29 20:37:00,
2013-03-29 15:40:00,50.8,32.8,30.10,South,180,2.0,10.0,50,0.00,,---,0.00,VWS V14.01,2013-03-29 20:40:00,
2013-03-29 15:42:00,52.2,32.1,30.12,SSW,194,8.0,17.0,46,0.00,,CLR,0.00,VWS V14.01,2013-03-29 20:42:00,
2013-03-29 15:45:00,50.5,33.1,30.09,South,180,6.0,12.0,51,0.00,,---,0.00,VWS V14.01,2013-03-29 20:45:00,
2013-03-29 15:47:00,52.2,33.1,30.11,South,180,4.0,10.0,48,0.00,,CLR,0.00,VWS V14.01,2013-03-29 20:47:00,
2013-03-29 15:50:00,50.5,33.5,30.09,South,180,3.0,7.0,52,0.00,,---,0.00,VWS V14.01,2013-03-29 20:50:00,
2013-03-29 15:55:00,50.5,33.5,30.09,South,180,3.0,12.0,52,0.00,,---,0.00,VWS V14.01,2013-03-29 20:55:00,
2013-03-29 15:57:00,52.0,32.4,30.11,South,179,10.0,14.0,47,0.00,,CLR,0.00,VWS V14.01,2013-03-29 20:57:00,
2013-03-29 16:00:00,50.4,33.5,30.09,South,180,4.0,10.0,52,0.00,,---,0.00,VWS V14.01,2013-03-29 21:00:00,
2013-03-29 16:02:00,51.7,32.7,30.11,South,174,10.0,15.0,48,0.00,,FEW090,0.00,VWS V14.01,2013-03-29 21:02:00,
2013-03-29 16:05:00,50.2,32.8,30.09,South,180,6.0,14.0,51,0.00,,---,0.00,VWS V14.01,2013-03-29 21:05:00,
2013-03-29 16:10:00,49.9,33.5,30.09,SSE,158,7.0,13.0,53,0.00,,---,0.00,VWS V14.01,2013-03-29 21:10:00,
2013-03-29 16:12:00,51.6,32.6,30.11,SSE,155,9.0,13.0,48,0.00,,FEW090,0.00,VWS V14.01,2013-03-29 21:12:00,
2013-03-29 16:15:00,49.8,33.4,30.09,SSE,158,4.0,11.0,53,0.00,,---,0.00,VWS V14.01,2013-03-29 21:15:00,
2013-03-29 16:17:00,51.9,32.8,30.10,South,179,9.0,13.0,48,0.00,,FEW090,0.00,VWS V14.01,2013-03-29 21:17:00,
2013-03-29 16:20:00,49.6,33.2,30.09,SSE,158,2.0,13.0,53,0.00,,---,0.00,VWS V14.01,2013-03-29 21:20:00,
2013-03-29 16:22:00,52.0,32.9,30.10,SSW,196,3.0,12.0,48,0.00,,FEW090,0.00,VWS V14.01,2013-03-29 21:22:00,
2013-03-29 16:25:00,49.5,33.6,30.09,SSE,158,1.0,9.0,54,0.00,,---,0.00,VWS V14.01,2013-03-29 21:25:00,
2013-03-29 16:30:00,49.5,33.6,30.08,South,180,3.0,10.0,54,0.00,,---,0.00,VWS V14.01,2013-03-29 21:30:00,
2013-03-29 16:32:00,51.9,32.8,30.10,South,179,3.0,13.0,48,0.00,,FEW090,0.00,VWS V14.01,2013-03-29 21:32:00,
2013-03-29 16:35:00,49.5,33.6,30.08,South,180,4.0,12.0,54,0.00,,---,0.00,VWS V14.01,2013-03-29 21:35:00,
2013-03-29 16:37:00,51.3,32.8,30.10,SSE,163,0.0,11.0,49,0.00,,FEW090,0.00,VWS V14.01,2013-03-29 21:37:00,
2013-03-29 16:40:00,49.4,33.5,30.08,SSE,158,4.0,10.0,54,0.00,,---,0.00,VWS V14.01,2013-03-29 21:40:00,
2013-03-29 16:45:00,49.2,33.3,30.08,SSE,158,3.0,9.0,54,0.00,,---,0.00,VWS V14.01,2013-03-29 21:45:00,
2013-03-29 16:47:00,50.5,33.1,30.09,SSW,194,5.0,11.0,51,0.00,,FEW090,0.00,VWS V14.01,2013-03-29 21:47:00,
2013-03-29 16:50:00,49.2,33.7,30.08,SSE,158,3.0,11.0,55,0.00,,---,0.00,VWS V14.01,2013-03-29 21:50:00,
2013-03-29 16:52:00,50.5,33.5,30.09,SSW,212,3.0,9.0,52,0.00,,FEW090,0.00,VWS V14.01,2013-03-29 21:52:00,
2013-03-29 16:55:00,49.1,33.7,30.08,South,180,2.0,7.0,55,0.00,,---,0.00,VWS V14.01,2013-03-29 21:55:00,
2013-03-29 17:00:00,48.8,33.4,30.08,SSE,158,5.0,11.0,55,0.00,,---,0.00,VWS V14.01,2013-03-29 22:00:00,
2013-03-29 17:02:00,50.4,33.5,30.09,SSE,156,2.0,9.0,52,0.00,,SCT090,0.00,VWS V14.01,2013-03-29 22:02:00,
2013-03-29 17:05:00,48.5,33.5,30.08,SSE,158,3.0,7.0,56,0.00,,---,0.00,VWS V14.01,2013-03-29 22:05:00,
2013-03-29 17:10:00,48.3,33.3,30.08,SSE,158,4.0,9.0,56,0.00,,---,0.00,VWS V14.01,2013-03-29 22:10:00,
2013-03-29 17:12:00,49.9,33.5,30.09,South,175,5.0,13.0,53,0.00,,SCT090,0.00,VWS V14.01,2013-03-29 22:12:00,
2013-03-29 17:15:00,48.3,33.3,30.08,SSE,158,2.0,9.0,56,0.00,,---,0.00,VWS V14.01,2013-03-29 22:15:00,
2013-03-29 17:20:00,48.2,33.7,30.08,South,180,2.0,9.0,57,0.00,,---,0.00,VWS V14.01,2013-03-29 22:20:00,
2013-03-29 17:22:00,49.6,33.2,30.09,South,173,0.0,13.0,53,0.00,,SCT090,0.00,VWS V14.01,2013-03-29 22:22:00,
2013-03-29 17:25:00,48.0,33.5,30.08,South,180,3.0,6.0,57,0.00,,---,0.00,VWS V14.01,2013-03-29 22:25:00,
2013-03-29 17:27:00,49.5,33.6,30.09,SSE,165,0.0,8.0,54,0.00,,SCT090,0.00,VWS V14.01,2013-03-29 22:27:00,
2013-03-29 17:30:00,47.9,33.8,30.08,SSE,158,4.0,12.0,58,0.00,,---,0.00,VWS V14.01,2013-03-29 22:30:00,
2013-03-29 17:32:00,49.5,33.6,30.08,South,187,5.0,10.0,54,0.00,,SCT090,0.00,VWS V14.01,2013-03-29 22:32:00,
2013-03-29 17:35:00,47.6,33.6,30.08,South,180,3.0,7.0,58,0.00,,---,0.00,VWS V14.01,2013-03-29 22:35:00,
2013-03-29 17:40:00,47.4,33.8,30.08,SSE,158,3.0,10.0,59,0.00,,---,0.00,VWS V14.01,2013-03-29 22:40:00,
2013-03-29 17:42:00,49.4,33.5,30.08,SE,138,3.0,10.0,54,0.00,,SCT090,0.00,VWS V14.01,2013-03-29 22:42:00,
2013-03-29 17:45:00,47.3,33.7,30.07,SSE,158,2.0,7.0,59,0.00,,---,0.00,VWS V14.01,2013-03-29 22:45:00,
2013-03-29 17:47:00,49.2,33.3,30.08,SSE,148,1.0,9.0,54,0.00,,SCT090,0.00,VWS V14.01,2013-03-29 22:47:00,
2013-03-29 17:50:00,47.0,33.8,30.07,SSE,158,4.0,10.0,60,0.00,,---,0.00,VWS V14.01,2013-03-29 22:50:00,
2013-03-29 17:52:00,49.2,33.7,30.08,SSE,165,0.0,11.0,55,0.00,,SCT090,0.00,VWS V14.01,2013-03-29 22:52:00,
2013-03-29 17:55:00,46.8,33.7,30.07,South,180,2.0,6.0,60,0.00,,---,0.00,VWS V14.01,2013-03-29 22:55:00,
2013-03-29 17:57:00,49.1,33.7,30.08,SE,142,5.0,7.0,55,0.00,,SCT090,0.00,VWS V14.01,2013-03-29 22:57:00,
2013-03-29 18:00:00,46.5,33.8,30.07,SSE,158,3.0,8.0,61,0.00,,---,0.00,VWS V14.01,2013-03-29 23:00:00,
2013-03-29 18:02:00,48.8,33.4,30.08,SSE,155,4.0,10.0,55,0.00,,SCT090,0.00,VWS V14.01,2013-03-29 23:02:00,
2013-03-29 18:05:00,46.4,34.1,30.07,SSE,158,2.0,8.0,62,0.00,,---,0.00,VWS V14.01,2013-03-29 23:05:00,
2013-03-29 18:07:00,48.5,33.5,30.08,SSE,153,0.0,7.0,56,0.00,,SCT090,0.00,VWS V14.01,2013-03-29 23:07:00,
2013-03-29 18:10:00,46.1,33.8,30.07,South,180,1.0,6.0,62,0.00,,---,0.00,VWS V14.01,2013-03-29 23:10:00,
2013-03-29 18:12:00,48.3,33.3,30.08,SSE,155,7.0,8.0,56,0.00,,SCT090,0.00,VWS V14.01,2013-03-29 23:12:00,
2013-03-29 18:15:00,46.0,34.1,30.07,South,180,0.0,0.0,63,0.00,,---,0.00,VWS V14.01,2013-03-29 23:15:00,
2013-03-29 18:17:00,48.3,33.3,30.08,SSE,160,3.0,9.0,56,0.00,,SCT090,0.00,VWS V14.01,2013-03-29 23:17:00,
2013-03-29 18:20:00,45.8,33.9,30.07,SSE,158,1.0,9.0,63,0.00,,---,0.00,VWS V14.01,2013-03-29 23:20:00,
2013-03-29 18:22:00,48.2,33.7,30.08,SSE,163,0.0,9.0,57,0.00,,SCT090,0.00,VWS V14.01,2013-03-29 23:22:00,
2013-03-29 18:25:00,45.5,34.0,30.07,SSE,158,2.0,6.0,64,0.00,,---,0.00,VWS V14.01,2013-03-29 23:25:00,
2013-03-29 18:30:00,45.4,34.0,30.07,SSE,158,1.0,6.0,64,0.00,,---,0.00,VWS V14.01,2013-03-29 23:30:00,
2013-03-29 18:32:00,47.9,33.8,30.08,South,175,2.0,12.0,58,0.00,,SCT090,0.00,VWS V14.01,2013-03-29 23:32:00,
2013-03-29 18:35:00,45.1,34.0,30.07,SSE,158,1.0,6.0,65,0.00,,---,0.00,VWS V14.01,2013-03-29 23:35:00,
2013-03-29 18:37:00,47.6,33.6,30.08,SSE,148,0.0,7.0,58,0.00,,SCT090,0.00,VWS V14.01,2013-03-29 23:37:00,
2013-03-29 18:40:00,44.9,33.9,30.07,SSE,158,1.0,7.0,65,0.00,,---,0.00,VWS V14.01,2013-03-29 23:40:00,
2013-03-29 18:42:00,47.4,33.8,30.08,SE,140,0.0,10.0,59,0.00,,SCT090,0.00,VWS V14.01,2013-03-29 23:42:00,
2013-03-29 18:45:00,44.6,34.0,30.07,SSE,158,2.0,7.0,66,0.00,,---,0.00,VWS V14.01,2013-03-29 23:45:00,
2013-03-29 18:47:00,47.3,33.7,30.07,SE,146,3.0,7.0,59,0.00,,SCT090,0.00,VWS V14.01,2013-03-29 23:47:00,
2013-03-29 18:50:00,44.5,34.2,30.07,SSE,158,1.0,6.0,67,0.00,,---,0.00,VWS V14.01,2013-03-29 23:50:00,
2013-03-29 18:52:00,47.0,33.8,30.07,SE,140,3.0,10.0,60,0.00,,SCT090,0.00,VWS V14.01,2013-03-29 23:52:00,
2013-03-29 18:55:00,44.3,34.0,30.07,SSE,158,1.0,5.0,67,0.00,,---,0.00,VWS V14.01,2013-03-29 23:55:00,
2013-03-29 19:00:00,44.2,34.3,30.07,SSE,158,0.0,6.0,68,0.00,,---,0.00,VWS V14.01,2013-03-30 00:00:00,
2013-03-29 19:02:00,46.5,33.8,30.07,SSE,148,5.0,8.0,61,0.00,,CLR,0.00,VWS V14.01,2013-03-30 00:02:00,
2013-03-29 19:05:00,44.1,34.2,30.07,SSE,158,1.0,7.0,68,0.00,,---,0.00,VWS V14.01,2013-03-30 00:05:00,
2013-03-29 19:10:00,43.9,34.4,30.07,SSE,158,2.0,6.0,69,0.00,,---,0.00,VWS V14.01,2013-03-30 00:10:00,
2013-03-29 19:12:00,46.1,33.8,30.07,SSE,147,0.0,6.0,62,0.00,,CLR,0.00,VWS V14.01,2013-03-30 00:12:00,
2013-03-29 19:15:00,43.8,34.3,30.06,SSE,158,2.0,6.0,69,0.00,,---,0.00,VWS V14.01,2013-03-30 00:15:00,
2013-03-29 19:17:00,46.0,34.1,30.07,South,171,0.0,0.0,63,0.00,,CLR,0.00,VWS V14.01,2013-03-30 00:17:00,
2013-03-29 19:20:00,43.8,34.7,30.06,SSE,158,2.0,9.0,70,0.00,,---,0.00,VWS V14.01,2013-03-30 00:20:00,
2013-03-29 19:22:00,45.8,33.9,30.07,SSE,149,6.0,9.0,63,0.00,,CLR,0.00,VWS V14.01,2013-03-30 00:22:00,
2013-03-29 19:25:00,43.6,34.5,30.06,SSE,158,0.0,5.0,70,0.00,,---,0.00,VWS V14.01,2013-03-30 00:25:00,
2013-03-29 19:27:00,45.5,34.0,30.07,SSE,153,0.0,6.0,64,0.00,,CLR,0.00,VWS V14.01,2013-03-30 00:27:00,
2013-03-29 19:30:00,43.5,34.4,30.05,SSE,158,1.0,5.0,70,0.00,,---,0.00,VWS V14.01,2013-03-30 00:30:00,
2013-03-29 19:35:00,43.3,34.5,30.05,SSE,158,1.0,5.0,71,0.00,,---,0.00,VWS V14.01,2013-03-30 00:35:00,
2013-03-29 19:37:00,45.1,34.0,30.07,South,191,0.0,6.0,65,0.00,,CLR,0.00,VWS V14.01,2013-03-30 00:37:00,
2013-03-29 19:40:00,43.3,34.5,30.05,SSE,158,0.0,4.0,71,0.00,,---,0.00,VWS V14.01,2013-03-30 00:40:00,
2013-03-29 19:42:00,44.9,33.9,30.07,South,171,0.0,7.0,65,0.00,,CLR,0.00,VWS V14.01,2013-03-30 00:42:00,
2013-03-29 19:45:00,43.3,34.5,30.05,SSE,158,2.0,6.0,71,0.00,,---,0.00,VWS V14.01,2013-03-30 00:45:00,
2013-03-29 19:47:00,44.6,34.0,30.07,SSE,165,1.0,7.0,66,0.00,,CLR,0.00,VWS V14.01,2013-03-30 00:47:00,
2013-03-29 19:50:00,43.2,34.5,30.05,SSE,158,1.0,5.0,71,0.00,,---,0.00,VWS V14.01,2013-03-30 00:50:00,
2013-03-29 19:52:00,44.5,34.2,30.07,SSE,159,2.0,6.0,67,0.00,,CLR,0.00,VWS V14.01,2013-03-30 00:52:00,
2013-03-29 19:55:00,43.2,34.5,30.05,SSE,158,2.0,6.0,71,0.00,,---,0.00,VWS V14.01,2013-03-30 00:55:00,
2013-03-29 19:57:00,44.3,34.0,30.07,SSE,159,0.0,5.0,67,0.00,,CLR,0.00,VWS V14.01,2013-03-30 00:57:00,
2013-03-29 20:00:00,43.2,34.5,30.05,SSE,158,3.0,7.0,71,0.00,,---,0.00,VWS V14.01,2013-03-30 01:00:00,
2013-03-29 20:02:00,44.2,34.3,30.07,SSE,153,0.0,6.0,68,0.00,,CLR,0.00,VWS V14.01,2013-03-30 01:02:00,
2013-03-29 20:05:00,43.2,34.5,30.05,SSE,158,1.0,6.0,71,0.00,,---,0.00,VWS V14.01,2013-03-30 01:05:00,
2013-03-29 20:07:00,44.1,34.2,30.07,SSE,168,4.0,7.0,68,0.00,,CLR,0.00,VWS V14.01,2013-03-30 01:07:00,
2013-03-29 20:10:00,43.2,34.5,30.05,SSE,158,1.0,7.0,71,0.00,,---,0.00,VWS V14.01,2013-03-30 01:10:00,
2013-03-29 20:12:00,43.9,34.4,30.07,SSE,153,4.0,6.0,69,0.00,,CLR,0.00,VWS V14.01,2013-03-30 01:12:00,
2013-03-29 20:15:00,43.1,34.3,30.05,SSE,158,1.0,6.0,71,0.00,,---,0.00,VWS V14.01,2013-03-30 01:15:00,
2013-03-29 20:17:00,43.8,34.3,30.06,SSE,165,3.0,6.0,69,0.00,,CLR,0.00,VWS V14.01,2013-03-30 01:17:00,
2013-03-29 20:20:00,43.1,34.7,30.05,SSE,158,2.0,5.0,72,0.00,,---,0.00,VWS V14.01,2013-03-30 01:20:00,
2013-03-29 20:22:00,43.8,34.7,30.06,SSE,158,0.0,8.0,70,0.00,,CLR,0.00,VWS V14.01,2013-03-30 01:22:00,
2013-03-29 20:25:00,42.9,34.5,30.05,SSE,158,0.0,5.0,72,0.00,,---,0.00,VWS V14.01,2013-03-30 01:25:00,
2013-03-29 20:27:00,43.6,34.5,30.06,SSE,159,0.0,5.0,70,0.00,,CLR,0.00,VWS V14.01,2013-03-30 01:27:00,
2013-03-29 20:30:00,42.9,34.5,30.05,SSE,158,1.0,6.0,72,0.00,,---,0.00,VWS V14.01,2013-03-30 01:30:00,
2013-03-29 20:33:00,43.5,34.4,30.05,SSE,157,3.0,5.0,70,0.00,,CLR,0.00,VWS V14.01,2013-03-30 01:33:00,
2013-03-29 20:35:00,42.8,34.4,30.05,SSE,158,1.0,6.0,72,0.00,,---,0.00,VWS V14.01,2013-03-30 01:35:00,
2013-03-29 20:40:00,42.8,34.4,30.05,SSE,158,2.0,5.0,72,0.00,,---,0.00,VWS V14.01,2013-03-30 01:40:00,
2013-03-29 20:42:00,43.3,34.5,30.05,SSE,157,1.0,4.0,71,0.00,,CLR,0.00,VWS V14.01,2013-03-30 01:42:00,
2013-03-29 20:45:00,42.6,34.2,30.05,SSE,158,2.0,5.0,72,0.00,,---,0.00,VWS V14.01,2013-03-30 01:45:00,
2013-03-29 20:47:00,43.3,34.5,30.05,SSE,167,3.0,6.0,71,0.00,,CLR,0.00,VWS V14.01,2013-03-30 01:47:00,
2013-03-29 20:50:00,42.6,34.6,30.05,SSE,158,3.0,10.0,73,0.00,,---,0.00,VWS V14.01,2013-03-30 01:50:00,
2013-03-29 20:55:00,42.6,34.2,30.05,SSE,158,3.0,7.0,72,0.00,,---,0.00,VWS V14.01,2013-03-30 01:55:00,
2013-03-29 20:57:00,43.2,34.5,30.05,SSE,154,0.0,6.0,71,0.00,,CLR,0.00,VWS V14.01,2013-03-30 01:57:00,
2013-03-29 21:00:00,42.5,34.5,30.05,SSE,158,2.0,6.0,73,0.00,,---,0.00,VWS V14.01,2013-03-30 02:00:00,
2013-03-29 21:02:00,43.2,34.5,30.05,South,173,0.0,7.0,71,0.00,,BKN110,0.00,VWS V14.01,2013-03-30 02:02:00,
2013-03-29 21:05:00,42.5,34.5,30.05,SSE,158,2.0,5.0,73,0.00,,---,0.00,VWS V14.01,2013-03-30 02:05:00,
2013-03-29 21:07:00,43.2,34.5,30.05,SSE,154,0.0,6.0,71,0.00,,BKN110,0.00,VWS V14.01,2013-03-30 02:07:00,
2013-03-29 21:10:00,42.5,34.5,30.05,SSE,158,2.0,5.0,73,0.00,,---,0.00,VWS V14.01,2013-03-30 02:10:00,
2013-03-29 21:12:00,43.2,34.5,30.05,SSE,158,0.0,7.0,71,0.00,,BKN110,0.00,VWS V14.01,2013-03-30 02:12:00,
2013-03-29 21:15:00,42.3,34.3,30.05,SSE,158,2.0,6.0,73,0.00,,---,0.00,VWS V14.01,2013-03-30 02:15:00,
2013-03-29 21:17:00,43.1,34.3,30.05,SSE,165,2.0,6.0,71,0.00,,BKN110,0.00,VWS V14.01,2013-03-30 02:17:00,
2013-03-29 21:20:00,42.3,34.3,30.05,SSE,158,2.0,7.0,73,0.00,,---,0.00,VWS V14.01,2013-03-30 02:20:00,
2013-03-29 21:25:00,42.3,34.3,30.05,SSE,158,4.0,8.0,73,0.00,,---,0.00,VWS V14.01,2013-03-30 02:25:00,
2013-03-29 21:27:00,42.9,34.5,30.05,SSE,164,4.0,4.0,72,0.00,,BKN110,0.00,VWS V14.01,2013-03-30 02:27:00,
2013-03-29 21:30:00,42.3,34.3,30.04,SSE,158,3.0,8.0,73,0.00,,---,0.00,VWS V14.01,2013-03-30 02:30:00,
2013-03-29 21:32:00,42.9,34.5,30.05,SSE,164,1.0,6.0,72,0.00,,BKN110,0.00,VWS V14.01,2013-03-30 02:32:00,
2013-03-29 21:35:00,42.3,34.3,30.04,SSE,158,4.0,7.0,73,0.00,,---,0.00,VWS V14.01,2013-03-30 02:35:00,
2013-03-29 21:37:00,42.8,34.4,30.05,SSE,150,5.0,6.0,72,0.00,,BKN110,0.00,VWS V14.01,2013-03-30 02:37:00,
2013-03-29 21:40:00,42.5,34.5,30.04,SSE,158,4.0,7.0,73,0.00,,---,0.00,VWS V14.01,2013-03-30 02:40:00,
2013-03-29 21:42:00,42.8,34.4,30.05,SSE,156,3.0,5.0,72,0.00,,BKN110,0.00,VWS V14.01,2013-03-30 02:42:00,
2013-03-29 21:45:00,42.5,34.5,30.03,SSE,158,3.0,7.0,73,0.00,,---,0.00,VWS V14.01,2013-03-30 02:45:00,
2013-03-29 21:50:00,42.5,34.8,30.03,SSE,158,4.0,7.0,74,0.00,,---,0.00,VWS V14.01,2013-03-30 02:50:00,
2013-03-29 21:52:00,42.6,34.6,30.05,SSE,155,3.0,10.0,73,0.00,,BKN110,0.00,VWS V14.01,2013-03-30 02:52:00,
2013-03-29 21:55:00,42.5,34.8,30.03,South,180,1.0,6.0,74,0.00,,---,0.00,VWS V14.01,2013-03-30 02:55:00,
2013-03-29 21:57:00,42.6,34.2,30.05,SSE,148,4.0,7.0,72,0.00,,BKN110,0.00,VWS V14.01,2013-03-30 02:57:00,
2013-03-29 22:00:00,42.3,35.0,30.03,South,175,6.0,6.0,75,0.00,,-RA,0.00,VWS V14.01,2013-03-30 03:00:00,
2013-03-29 22:02:00,42.5,34.5,30.05,SSE,163,2.0,6.0,73,0.00,,BKN100,0.00,VWS V14.01,2013-03-30 03:02:00,
2013-03-29 22:05:00,42.2,35.2,30.03,SSE,155,3.0,6.0,76,0.00,,-RA,0.00,VWS V14.01,2013-03-30 03:05:00,
2013-03-29 22:10:00,42.1,35.1,30.03,SSE,160,1.0,5.0,76,0.00,,-RA,0.00,VWS V14.01,2013-03-30 03:10:00,
2013-03-29 22:12:00,42.5,34.5,30.05,SSE,163,4.0,5.0,73,0.00,,BKN100,0.00,VWS V14.01,2013-03-30 03:12:00,
2013-03-29 22:15:00,41.9,35.2,30.02,SSE,161,3.0,8.0,77,0.00,,-RA,0.00,VWS V14.01,2013-03-30 03:15:00,
2013-03-29 22:20:00,41.8,35.1,30.02,SSE,165,2.0,6.0,77,0.00,,-RA,0.00,VWS V14.01,2013-03-30 03:20:00,
2013-03-29 22:22:00,42.3,34.3,30.05,SSE,167,3.0,7.0,73,0.00,,BKN100,0.00,VWS V14.01,2013-03-30 03:22:00,
2013-03-29 22:25:00,41.8,35.1,30.02,SSE,151,3.0,6.0,77,0.00,,-RA,0.00,VWS V14.01,2013-03-30 03:25:00,
2013-03-29 22:27:00,42.3,34.3,30.05,SSE,150,3.0,7.0,73,0.00,,BKN100,0.00,VWS V14.01,2013-03-30 03:27:00,
2013-03-29 22:30:00,41.8,35.1,30.02,SSE,156,3.0,9.0,77,0.00,,-RA,0.00,VWS V14.01,2013-03-30 03:30:00,
2013-03-29 22:32:00,42.3,34.3,30.04,SSE,167,4.0,8.0,73,0.00,,BKN100,0.00,VWS V14.01,2013-03-30 03:32:00,
2013-03-29 22:35:00,41.8,35.1,30.02,South,170,4.0,8.0,77,0.00,,-RA,0.00,VWS V14.01,2013-03-30 03:35:00,
2013-03-29 22:40:00,41.8,35.1,30.02,SSE,165,5.0,8.0,77,0.00,,-RA,0.00,VWS V14.01,2013-03-30 03:40:00,
2013-03-29 22:42:00,42.5,34.5,30.04,South,172,4.0,7.0,73,0.00,,BKN100,0.00,VWS V14.01,2013-03-30 03:42:00,
2013-03-29 22:45:00,41.8,35.1,30.01,SSE,166,4.0,6.0,77,0.00,,-RA,0.00,VWS V14.01,2013-03-30 03:45:00,
2013-03-29 22:47:00,42.5,34.5,30.03,South,176,3.0,6.0,73,0.00,,BKN100,0.00,VWS V14.01,2013-03-30 03:47:00,
2013-03-29 22:50:00,41.9,35.2,30.01,South,171,2.0,6.0,77,0.00,,-RA,0.00,VWS V14.01,2013-03-30 03:50:00,
2013-03-29 22:52:00,42.5,34.8,30.03,SSE,150,7.0,7.0,74,0.00,,BKN100,0.00,VWS V14.01,2013-03-30 03:52:00,
2013-03-29 22:55:00,41.9,35.2,30.01,SSE,158,4.0,9.0,77,0.00,,-RA,0.00,VWS V14.01,2013-03-30 03:55:00,
2013-03-29 22:57:00,42.5,34.8,30.03,South,174,0.0,7.0,74,0.00,,BKN100,0.00,VWS V14.01,2013-03-30 03:57:00,
2013-03-29 23:00:00,41.9,34.9,30.00,South,171,3.0,7.0,76,0.00,,OVC075,0.00,VWS V14.01,2013-03-30 04:00:00,
2013-03-29 23:05:00,41.9,34.9,30.00,SSE,161,4.0,7.0,76,0.00,,OVC075,0.00,VWS V14.01,2013-03-30 04:05:00,
2013-03-29 23:10:00,42.1,35.1,30.00,SSE,155,4.0,9.0,76,0.00,,OVC075,0.00,VWS V14.01,2013-03-30 04:10:00,
2013-03-29 23:15:00,42.1,35.1,29.99,SSE,151,6.0,10.0,76,0.00,,OVC075,0.00,VWS V14.01,2013-03-30 04:15:00,
2013-03-29 23:20:00,42.1,35.1,29.99,SSW,198,4.0,9.0,76,0.00,,OVC075,0.00,VWS V14.01,2013-03-30 04:20:00,
2013-03-29 23:25:00,42.2,34.9,29.99,SSE,148,3.0,8.0,75,0.00,,OVC075,0.00,VWS V14.01,2013-03-30 04:25:00,
2013-03-29 23:30:00,42.2,34.9,29.99,South,178,1.0,8.0,75,0.00,,OVC075,0.00,VWS V14.01,2013-03-30 04:30:00,
2013-03-29 23:35:00,42.2,34.9,29.99,South,173,2.0,5.0,75,0.00,,OVC075,0.00,VWS V14.01,2013-03-30 04:35:00,
2013-03-29 23:40:00,42.3,35.0,29.99,South,170,6.0,7.0,75,0.00,,OVC075,0.00,VWS V14.01,2013-03-30 04:40:00,
2013-03-29 23:45:00,42.3,34.6,29.98,South,173,8.0,11.0,74,0.00,,OVC075,0.00,VWS V14.01,2013-03-30 04:45:00,
2013-03-29 23:50:00,42.5,34.8,29.98,South,173,3.0,8.0,74,0.00,,OVC075,0.00,VWS V14.01,2013-03-30 04:50:00,
2013-03-29 23:55:00,42.6,34.9,29.98,SSE,158,5.0,8.0,74,0.00,,OVC075,0.00,VWS V14.01,2013-03-30 04:55:00,